Location: Bouillancy
(49.1149°N, 2.9308°E)
Time: 08:38:44
(UTC+00:00)

ERS-2 - Pass Details

Date: 30 September 2020
Orbit: 492 x 499 km, 98.6° (Epoch: 29 October)

Event Time Altitude Azimuth Distance (km) Brightness Sun altitude
Rises 17:57:28 0° 5° (N) 2,594 5.7 -5.6°
Reaches altitude 10° 17:59:44 10° 355° (N) 1,704 4.9 -6.0°
Maximum altitude 18:02:55 29° 294° (WNW) 936 4.4 -6.5°
Drops below altitude 10° 18:06:05 10° 233° (SW) 1,689 5.6 -7.0°
Sets 18:08:19 0° 222° (SW) 2,566 6.3 -7.4°
